Location: Innerarity Island Observatory
(30.3139°N, 87.4867°W)
Time: 20:23:54
(UTC-05:00)

OPAL - Visible Passes

Search period start: 01 May 2016 00:00
Search period end: 11 May 2016 00:00
Orbit: 743 x 796 km, 100.2° (Epoch: 01 May)

Date Brightness Start Highest point End Pass type
(mag) Time Alt. Az. Time Alt. Az. Time Alt. Az.
01 May 10.2 02:06:03 10° N 02:06:47 14° N 02:06:47 14° N visible
02 May 10.3 01:30:16 10° NNE 01:30:57 14° NNE 01:30:57 14° NNE visible
03 May 10.1 02:34:55 10° NNW 02:35:24 12° NNW 02:35:24 12° NNW visible
04 May 10.0 01:58:30 10° N 01:59:34 16° N 01:59:34 16° N visible
05 May 10.2 01:22:54 10° NNE 01:23:44 15° NNE 01:23:44 15° NNE visible
06 May 10.0 02:27:09 10° NNW 02:28:11 15° NNW 02:28:11 15° NNW visible
07 May 9.9 01:51:00 10° N 01:52:21 18° N 01:52:21 18° N visible
08 May 10.2 01:15:35 10° NNE 01:16:30 15° NNE 01:16:30 15° NNE visible
08 May 10.1 02:56:38 10° NW 02:56:48 10° NW 02:56:48 10° NW visible
09 May 9.8 02:19:28 10° N 02:20:58 18° NNW 02:20:58 18° NNW visible
10 May 9.8 01:43:33 10° N 01:45:07 20° N 01:45:07 20° N visible
